This is the latest recevied weather packets stored in our database for station/object KH6DH-13. If no packets are shown the sender has not sent any weather packets the latest 10 day(s).
| Time | Temp. | Humidity | Pressure | Rain* | Wind** | Luminosity | Snow |
|---|---|---|---|---|---|---|---|
| 1777794765 | 23.33° C | - | - | 0 mm | 0.45 m/s, 139° | - | - |
| 1777794164 | 23.33° C | - | - | 0 mm | 0.89 m/s, 91° | - | - |
| 1777793563 | 23.89° C | - | - | 0 mm | 0.45 m/s, 8° | - | - |
| 1777792962 | 23.89° C | - | - | 0 mm | 1.34 m/s, 25° | - | - |
| 1777792361 | 23.33° C | - | - | 0 mm | 0.45 m/s, 63° | - | - |
| 1777791760 | 23.89° C | - | - | 0 mm | 1.34 m/s, 38° | - | - |
| 1777791159 | 23.33° C | - | - | 0 mm | 1.79 m/s, 18° | - | - |
| 1777790558 | 23.33° C | - | - | 0 mm | 1.79 m/s, 38° | - | - |
| 1777789957 | 23.89° C | - | - | 0 mm | 2.24 m/s, 75° | - | - |
| 1777789356 | 23.89° C | - | - | 0 mm | 0.89 m/s, 44° | - | - |
| 1777788755 | 23.89° C | - | - | 0 mm | 1.34 m/s, 101° | - | - |
| 1777788154 | 24.44° C | - | - | 0 mm | 0.45 m/s, 203° | - | - |
| 1777787553 | 24.44° C | - | - | 0 mm | 0 m/s | - | - |
| 1777786952 | 24.44° C | - | - | 0 mm | 1.34 m/s, 97° | - | - |
| 1777786351 | 24.44° C | - | - | 0 mm | 0.45 m/s, 345° | - | - |
| 1777785750 | 24.44° C | - | - | 0 mm | 0.89 m/s, 86° | - | - |
| 1777785149 | 25° C | - | - | 0 mm | 0.89 m/s, 84° | - | - |
| 1777784548 | 25° C | - | - | 0 mm | 1.34 m/s, 1° | - | - |
| 1777783947 | 25° C | - | - | 0 mm | 1.34 m/s, 101° | - | - |
| 1777783346 | 26.11° C | - | - | 0 mm | 1.34 m/s, 56° | - | - |
| 1777782745 | 26.11° C | - | - | 0 mm | 0.45 m/s, 60° | - | - |
| 1777782144 | 26.67° C | - | - | 0 mm | 0.45 m/s, 39° | - | - |
| 1777781543 | 26.67° C | - | - | 0 mm | 1.79 m/s, 30° | - | - |
| 1777780942 | 27.22° C | - | - | 0 mm | 1.79 m/s, 87° | - | - |
| 1777780341 | 28.89° C | - | - | 0 mm | 1.79 m/s, 96° | - | - |
* Rain latest hour (hover to see other rain measurements)
** Current wind speed in m/s (hover to see current wind gust speed)